User: anonymous   Login
Location: Vancouver
(49.2500°N, 123.1330°W)
Time: 04:10:07
(UTC-07:00)
Language:

Cosmos 1340 Rocket - Orbit

View from above orbital plane
View from above orbital plane
View from above satellite
View from above satellite

Ground track
Ground track

The orbit data is extracted from the following two-line orbital elements,

1 13068U 82013B   17290.86832672 -.00000059  00000-0 -54477-5 0  9991
2 13068  81.2020  82.4070 0020500 270.7557  89.1318 15.07015259941979
Epoch (UTC): 17 October 2017 20:50:23
Eccentricity: 0.0020500
inclination: 81.2020°
perigee height: 531 km
apogee height: 559 km
right ascension of ascending node: 82.4070°
argument of perigee: 270.7557°
revolutions per day: 15.07015259
mean anomaly at epoch: 89.1318°
orbit number at epoch: 94197

The dashed part of the orbit path shows where the satellite is in the earth's shadow,  

DLR